This is the latest recevied weather packets stored in our database for station/object KD4WXI. If no packets are shown the sender has not sent any weather packets the latest 10 day(s).
| Time | Temp. | Humidity | Pressure | Rain* | Wind** | Luminosity | Snow |
|---|---|---|---|---|---|---|---|
| 1777969857 | 11.67° C | 82% | 1015.7 hPa | 0 mm | - | 0 W/m² | - |
| 1777969553 | 11.67° C | 82% | 1015.7 hPa | 0 mm | - | 0 W/m² | - |
| 1777969250 | 11.67° C | 81% | 1015.6 hPa | 0 mm | - | 0 W/m² | - |
| 1777968947 | 12.22° C | 81% | 1015.6 hPa | 0 mm | - | 0 W/m² | - |
| 1777968644 | 12.78° C | 78% | 1015.6 hPa | 0 mm | - | 0 W/m² | - |
| 1777968340 | 12.78° C | 77% | 1015.6 hPa | 0 mm | - | 0 W/m² | - |
| 1777968037 | 12.78° C | 77% | 1015.6 hPa | 0 mm | - | 0 W/m² | - |
| 1777967733 | 13.33° C | 76% | 1015.3 hPa | 0 mm | - | 0 W/m² | - |
| 1777967430 | 13.33° C | 76% | 1015.4 hPa | 0 mm | - | 0 W/m² | - |
| 1777967127 | 13.33° C | 75% | 1015.4 hPa | 0 mm | - | 0 W/m² | - |
| 1777966824 | 13.89° C | 74% | 1015.4 hPa | 0 mm | - | 0 W/m² | - |
| 1777966521 | 13.89° C | 73% | 1015.5 hPa | 0 mm | - | 0 W/m² | - |
| 1777966220 | 13.89° C | 73% | 1015.3 hPa | 0 mm | - | 0 W/m² | - |
| 1777965915 | 13.89° C | 74% | 1015.3 hPa | 0 mm | - | 0 W/m² | - |
| 1777965611 | 13.89° C | 73% | 1015.4 hPa | 0 mm | - | 0 W/m² | - |
| 1777965307 | 14.44° C | 71% | 1014.9 hPa | 0 mm | - | 0 W/m² | - |
| 1777965005 | 14.44° C | 70% | 1014.9 hPa | 0 mm | - | 0 W/m² | - |
| 1777964702 | 14.44° C | 71% | 1015.1 hPa | 0 mm | - | 0 W/m² | - |
| 1777964398 | 14.44° C | 70% | 1015.2 hPa | 0 mm | - | 0 W/m² | - |
| 1777964094 | 15° C | 69% | 1015 hPa | 0 mm | - | 0 W/m² | - |
| 1777963791 | 15° C | 68% | 1015.1 hPa | 0 mm | - | 0 W/m² | - |
| 1777963488 | 15.56° C | 66% | 1015 hPa | 0 mm | - | 0 W/m² | - |
| 1777963186 | 15.56° C | 66% | 1015 hPa | 0 mm | - | 0 W/m² | - |
| 1777962882 | 15.56° C | 65% | 1015.1 hPa | 0 mm | - | 0 W/m² | - |
| 1777962579 | 14.44° C | 66% | 1015 hPa | 0 mm | - | 0 W/m² | - |
* Rain latest hour (hover to see other rain measurements)
** Current wind speed in m/s (hover to see current wind gust speed)